| time (UTC) | temp F | wind direction | speed MPH | gust MPH | rain 1hr in | rain 24hr in | rain mn in | humidity % | barometer mb |
| 20260506050105 | 38 | 272 | 1.0 | 5.0 | 0.00 | 0.00 | 0.00 | 59 | 1011.7 |
| 20260506044638 | 38 | 269 | 0.0 | 3.0 | 0.00 | 0.00 | 0.00 | 59 | 1011.5 |
| 20260506043058 | 38 | 0 | 2.0 | 7.0 | 0.00 | 0.00 | 0.00 | 58 | 1011.4 |
| 20260506041603 | 39 | 317 | 1.0 | 6.0 | 0.00 | 0.00 | 0.00 | 57 | 1011.4 |
| 20260506040058 | 39 | 267 | 1.0 | 3.0 | 0.00 | 0.00 | 0.00 | 57 | 1011.4 |
| 20260506034557 | 39 | 241 | 0.0 | 4.0 | 0.00 | 0.00 | 0.00 | 57 | 1011.4 |
| 20260506033055 | 39 | 11 | 0.0 | 6.0 | 0.00 | 0.00 | 0.00 | 56 | 1011.3 |
| 20260506031558 | 40 | 240 | 1.0 | 4.0 | 0.00 | 0.00 | 0.00 | 56 | 1011.3 |
| 20260506030059 | 40 | 42 | 2.0 | 7.0 | 0.00 | 0.00 | 0.00 | 56 | 1011.2 |
| 20260506024558 | 40 | 315 | 1.0 | 6.0 | 0.00 | 0.00 | 0.00 | 55 | 1011.1 |
| 20260506023059 | 40 | 232 | 0.0 | 3.0 | 0.00 | 0.00 | 0.00 | 57 | 1011.0 |
| 20260506021606 | 40 | 0 | 0.0 | 3.0 | 0.00 | 0.00 | 0.00 | 57 | 1010.8 |
| 20260506020055 | 40 | 261 | 0.0 | 3.0 | 0.00 | 0.00 | 0.00 | 57 | 1010.6 |
| 20260506014556 | 40 | 210 | 0.0 | 4.0 | 0.00 | 0.00 | 0.00 | 56 | 1010.6 |
| 20260506013101 | 40 | 280 | 1.0 | 6.0 | 0.00 | 0.00 | 0.00 | 55 | 1010.3 |
| 20260506011554 | 41 | 261 | 0.0 | 2.0 | 0.00 | 0.00 | 0.00 | 56 | 1010.2 |
| 20260506010115 | 41 | 244 | 0.0 | 5.0 | 0.00 | 0.00 | 0.00 | 55 | 1010.0 |
| 20260506004557 | 42 | 0 | 1.0 | 4.0 | 0.00 | 0.00 | 0.00 | 54 | 1010.0 |
| 20260506003058 | 42 | 299 | 2.0 | 4.0 | 0.00 | 0.00 | 0.00 | 53 | 1009.8 |
| 20260506001558 | 42 | 284 | 1.0 | 8.0 | 0.00 | 0.00 | 0.00 | 54 | 1009.7 |
| 20260506000057 | 43 | 275 | 2.0 | 5.0 | 0.00 | 0.00 | 0.00 | 54 | 1009.6 |
| 20260505234608 | 44 | 257 | 2.0 | 5.0 | 0.00 | 0.00 | 0.00 | 53 | 1009.4 |
| 20260505233057 | 43 | 336 | 0.0 | 4.0 | 0.00 | 0.00 | 0.00 | 53 | 1009.2 |
| 20260505231601 | 44 | 309 | 0.0 | 9.0 | 0.00 | 0.00 | 0.00 | 52 | 1009.3 |
| 20260505224558 | 44 | 327 | 2.0 | 6.0 | 0.00 | 0.00 | 0.00 | 51 | 1009.2 |
| 20260505223057 | 44 | 0 | 1.0 | 6.0 | 0.00 | 0.00 | 0.00 | 50 | 1009.0 |
| 20260505221558 | 45 | 338 | 1.0 | 6.0 | 0.00 | 0.00 | 0.00 | 50 | 1009.0 |
| 20260505220059 | 45 | 234 | 2.0 | 11.0 | 0.00 | 0.00 | 0.00 | 49 | 1009.0 |
| 20260505214622 | 46 | 277 | 3.0 | 8.0 | 0.00 | 0.00 | 0.00 | 47 | 1008.9 |
| 20260505213102 | 46 | 244 | 3.0 | 11.0 | 0.00 | 0.00 | 0.00 | 47 | 1008.9 |
| 20260505211554 | 44 | 55 | 3.0 | 12.0 | 0.00 | 0.00 | 0.00 | 49 | 1008.9 |
| 20260505210101 | 44 | 268 | 3.0 | 11.0 | 0.00 | 0.00 | 0.00 | 51 | 1008.8 |
| 20260505204559 | 44 | 146 | 2.0 | 9.0 | 0.00 | 0.00 | 0.00 | 50 | 1008.8 |
| 20260505203055 | 43 | 144 | 4.0 | 9.0 | 0.00 | 0.00 | 0.00 | 49 | 1008.8 |
| 20260505201557 | 44 | 269 | 4.0 | 10.0 | 0.00 | 0.00 | 0.00 | 48 | 1008.9 |
| 20260505200106 | 44 | 276 | 2.0 | 11.0 | 0.00 | 0.00 | 0.00 | 49 | 1008.8 |
| 20260505194607 | 43 | 268 | 4.0 | 11.0 | 0.00 | 0.00 | 0.00 | 49 | 1008.9 |
| 20260505193058 | 43 | 242 | 3.0 | 9.0 | 0.00 | 0.00 | 0.00 | 48 | 1008.7 |
| 20260505191600 | 43 | 259 | 3.0 | 9.0 | 0.00 | 0.00 | 0.00 | 49 | 1008.7 |
| 20260505190059 | 43 | 278 | 4.0 | 11.0 | 0.00 | 0.00 | 0.00 | 48 | 1008.7 |
| 20260505184556 | 43 | 167 | 1.0 | 8.0 | 0.00 | 0.00 | 0.00 | 49 | 1008.7 |
| 20260505183055 | 42 | 252 | 3.0 | 9.0 | 0.00 | 0.00 | 0.00 | 51 | 1008.7 |
| 20260505181554 | 41 | 273 | 2.0 | 10.0 | 0.00 | 0.00 | 0.00 | 51 | 1008.7 |
| 20260505180107 | 41 | 331 | 4.0 | 10.0 | 0.00 | 0.00 | 0.00 | 50 | 1008.8 |
| 20260505174604 | 41 | 260 | 4.0 | 10.0 | 0.00 | 0.00 | 0.00 | 50 | 1008.7 |
| 20260505173056 | 40 | 154 | 2.0 | 8.0 | 0.00 | 0.00 | 0.00 | 52 | 1008.8 |
| 20260505171556 | 39 | 198 | 2.0 | 10.0 | 0.00 | 0.00 | 0.00 | 53 | 1008.6 |
| 20260505170055 | 39 | 279 | 2.0 | 6.0 | 0.00 | 0.00 | 0.00 | 53 | 1008.7 |
| 20260505164555 | 38 | 272 | 2.0 | 8.0 | 0.00 | 0.00 | 0.00 | 57 | 1008.7 |
| 20260505163055 | 37 | 340 | 2.0 | 9.0 | 0.00 | 0.00 | 0.00 | 58 | 1008.6 |
| 20260505161607 | 37 | 310 | 2.0 | 10.0 | 0.00 | 0.00 | 0.00 | 56 | 1008.5 |
| 20260505153055 | 37 | 159 | 3.0 | 11.0 | 0.00 | 0.00 | 0.00 | 57 | 1008.1 |
| 20260505151600 | 37 | 283 | 2.0 | 10.0 | 0.00 | 0.00 | 0.00 | 57 | 1007.9 |
| 20260505140107 | 38 | 263 | 3.0 | 9.0 | 0.00 | 0.00 | 0.00 | 61 | 1007.0 |
| 20260505124550 | 36 | 41 | 2.0 | 9.0 | 0.00 | 0.00 | 0.00 | 65 | 1006.3 |
| 20260505123105 | 36 | 269 | 1.0 | 6.0 | 0.00 | 0.00 | 0.00 | 65 | 1006.0 |
| 20260505121554 | 35 | 205 | 5.0 | 14.0 | 0.00 | 0.00 | 0.00 | 65 | 1005.9 |
| 20260505120057 | 35 | 269 | 4.0 | 11.0 | 0.00 | 0.00 | 0.00 | 67 | 1005.5 |
| 20260505114556 | 35 | 360 | 3.0 | 8.0 | 0.00 | 0.00 | 0.00 | 68 | 1005.4 |
| 20260505113110 | 36 | 321 | 1.0 | 9.0 | 0.00 | 0.00 | 0.00 | 69 | 1005.2 |
| 20260505111555 | 36 | 294 | 4.0 | 10.0 | 0.00 | 0.00 | 0.00 | 69 | 1005.1 |
| 20260505101554 | 37 | 0 | 2.0 | 16.0 | 0.00 | 0.00 | 0.00 | 72 | 1004.5 |
| 20260505100055 | 37 | 249 | 1.0 | 9.0 | 0.00 | 0.00 | 0.00 | 72 | 1004.4 |
| 20260505094557 | 37 | 276 | 2.0 | 6.0 | 0.00 | 0.00 | 0.00 | 72 | 1004.3 |
| 20260505093059 | 37 | 198 | 2.0 | 7.0 | 0.00 | 0.00 | 0.00 | 73 | 1004.1 |
| 20260505091608 | 36 | 0 | 0.0 | 0.0 | 0.00 | 0.00 | 0.00 | 75 | 1003.8 |
| 20260505090056 | 37 | 0 | 0.0 | 1.0 | 0.00 | 0.00 | 0.00 | 73 | 1003.4 |
| 20260505084555 | 38 | 0 | 0.0 | 1.0 | 0.00 | 0.00 | 0.00 | 72 | 1003.4 |
| 20260505083104 | 38 | 0 | 0.0 | 3.0 | 0.00 | 0.00 | 0.00 | 71 | 1003.4 |
| 20260505081603 | 39 | 308 | 0.0 | 4.0 | 0.00 | 0.00 | 0.00 | 70 | 1003.3 |
| 20260505080105 | 39 | 265 | 0.0 | 5.0 | 0.00 | 0.00 | 0.00 | 69 | 1003.3 |
| 20260505074559 | 40 | 0 | 1.0 | 7.0 | 0.00 | 0.00 | 0.00 | 68 | 1003.2 |
| 20260505073057 | 40 | 250 | 0.0 | 3.0 | 0.00 | 0.00 | 0.00 | 68 | 1003.1 |
| 20260505071558 | 40 | 256 | 2.0 | 4.0 | 0.00 | 0.00 | 0.00 | 68 | 1003.3 |
| 20260505070055 | 40 | 0 | 1.0 | 5.0 | 0.00 | 0.00 | 0.00 | 68 | 1003.2 |
| 20260505064554 | 39 | 0 | 0.0 | 2.0 | 0.00 | 0.00 | 0.00 | 67 | 1003.2 |
| 20260505063128 | 40 | 0 | 0.0 | 1.0 | 0.00 | 0.00 | 0.00 | 62 | 1003.3 |
| 20260505061633 | 42 | 0 | 0.0 | 4.0 | 0.00 | 0.00 | 0.00 | 56 | 1003.1 |
| 20260505060103 | 42 | 253 | 1.0 | 6.0 | 0.00 | 0.00 | 0.00 | 54 | 1003.0 |